Weather Roundup
Issued by NWS Springfield, MO

Home | Current Version | Previous Version | Text Only | Print | Product List | Glossary On
Versions: 1 2 3 4 5 6 7 8 9 10 11 12 13 14 15 16 17 18 19 20 21 22 23 24 25 26 27 28 29 30 31 32 33 34 35 36 37 38 39 40 41 42 43 44 45 46 47 48 49 50
000
NZUS99 KSGF 230307
HRRSGF

HOURLY WEATHER
NATIONAL WEATHER SERVICE SPRINGFIELD MO
1000 PM CDT FRI MAY 22 2015

......SGF CWA......

CITY           SKY/WX    TMP DP  RH WIND       PRES   REMARKS
SPRINGFIELD    CLOUDY    61  48  62 SE9       30.21S
JOPLIN         CLOUDY    61  50  67 E7        30.20R
WEST PLAINS    CLOUDY    60  47  61 SE6       30.25S
ROLLA          CLOUDY    61  54  77 CALM      30.24R
OSAGE BEACH    CLOUDY    63  52  67 E3        30.23R
BRANSON        MOCLDY    57  48  72 CALM      30.23R

......SURROUNDING SGF CWA......

CITY           SKY/WX    TMP DP  RH WIND       PRES   REMARKS
CHANUTE        CLOUDY    61  51  70 E5        30.18R
PARSONS        CLOUDY    61  54  77 CALM      30.18S
COFFEYVILLE    CLOUDY    61  56  83 CALM      30.17R
EMPORIA        CLOUDY    58  50  75 SE6G17    30.17S
GROVE OK       CLOUDY    63  52  67 CALM      30.20R
ROGERS AR      CLOUDY    61  50  67 SE5       30.22R
SILOAM SPRINGS PTCLDY    57  46  67 E3        30.21R
HARRISON AR    PTCLDY    58  50  75 SE10      30.21S
NEAR YELLVILLE MOCLDY    61  48  63 CALM      30.22R

......KANSAS AND MISSOURI......

CITY           SKY/WX    TMP DP  RH WIND       PRES   REMARKS
KANSAS CTY INT CLOUDY    60  51  72 SE8       30.20S
DOWNTOWN KC    CLOUDY    63  49  60 E7        30.19S
COLUMBIA       CLOUDY    62  54  74 E5        30.25R
SEDALIA        CLOUDY    63  54  72 E6        30.24R
ST JOSEPH      CLOUDY    61  50  67 SE6       30.20S
ST LOUIS       CLOUDY    66  50  56 CALM      30.26R
SPIRIT OF STL  CLOUDY    62  58  86 CALM      30.25R
KIRKSVILLE     MOCLDY    58  55  90 CALM      30.24R
WICHITA        LGT RAIN  55  53  93 SE13      30.15S FOG
TOPEKA         CLOUDY    60  51  72 SE6       30.19S
OLATHE         CLOUDY    60  52  74 SE6       30.20R

......TENNESSEE......

CITY           SKY/WX    TMP DP  RH WIND       PRES   REMARKS
MEMPHIS        PTCLDY    66  50  56 NE7       30.24R
NASHVILLE      CLOUDY    64  49  57 CALM      30.28R

......ARKANSAS.......

CITY           SKY/WX    TMP DP  RH WIND       PRES   REMARKS
FAYETTEVILLE   PTCLDY    56  53  90 CALM      30.20R
FT SMITH       CLOUDY    60  56  86 E7        30.19R
LITTLE ROCK    CLOUDY    66  53  63 SE8       30.19F

......OKLAHOMA.......

CITY           SKY/WX    TMP DP  RH WIND       PRES   REMARKS
TULSA          CLOUDY    61  54  77 SE5       30.16R
PONCA CITY     CLOUDY    56  55  97 SE8       30.15S FOG
MCALESTER      LGT RAIN  60  58  92 CALM      30.16R FOG
OKLAHOMA CITY  CLOUDY    56  54  93 SE9       30.13F

......IOWA............

CITY           SKY/WX    TMP DP  RH WIND       PRES   REMARKS
DES MOINES     CLOUDY    64  47  53 S3        30.22R
QUAD CITIES    CLOUDY    60  48  64 SW5       30.22R

......ILLINOIS........

CITY           SKY/WX    TMP DP  RH WIND       PRES   REMARKS
QUINCY         CLOUDY    64  53  67 S3        30.25S
CHICAGO        CLOUDY    53  29  39 E7        30.28R



USA.gov is the U.S. government's official web portal to all federal, state and local government web resources and services.